Skip Page Navigation
NASA JPL Caltech
NASA Logo - Jet Propulsion Laboratory + View the NASA Portal
+ Center for Near-Earth Object Studies
JPL Home Earth Solar System Stars & Galaxies Technology
JPL Solar System Dynamics
BODIES ORBITS EPHEMERIDES TOOLS PHYSICAL DATA DISCOVERY FAQ SITE MAP
JPL Small-Body Database Browser
Search: [ help ]  
376 Geometria (A893 SC)
Classification: Main-belt Asteroid          SPK-ID: 2000376
Ephemeris | Orbit Diagram | Orbital Elements | Mission Design | Physical Parameters | Discovery Circumstances ]

[ show orbit diagram ]
Orbital Elements at Epoch 2459000.5 (2020-May-31.0) TDB
Reference: JPL 81 (heliocentric ecliptic J2000)
 Element Value Uncertainty (1-sigma)   Units 
e .1721483416834813 3.6052e-08  
a 2.288248134943152 5.1467e-09 au
q 1.894330013152369 8.3053e-08 au
i 5.433076771200045 4.1949e-06 deg
node 301.9865832331374 4.1265e-05 deg
peri 316.8909962824 4.3255e-05 deg
M 301.59423007623 1.4692e-05 deg
tp 2459205.619219358431
(2020-Dec-22.11921936)
5.1822e-05 TDB
period 1264.308630216045
3.46
4.2655e-06
1.168e-08
d
yr
n .2847406016191499 9.6064e-10 deg/d
Q 2.682166256733934 6.0326e-09 au
  Orbit Determination Parameters
   # obs. used (total)      3029  
   data-arc span      44347 days (121.42 yr)  
   first obs. used      1899-03-06  
   last obs. used      2020-08-05  
   planetary ephem.      DE431  
   SB-pert. ephem.      SB431-N16  
   condition code      0  
   norm. resid. RMS      .44877  
   source      ORB  
   producer      Otto Matic  
   solution date      2020-Aug-24 22:14:57  

Additional Information
 Earth MOID = .883285 au 
 Jupiter MOID = 2.40107 au 
 T_jup = 3.575 
[ show covariance matrix ]

Ephemeris | Orbit Diagram | Orbital Elements | Mission Design | Physical Parameters | Discovery Circumstances ]

Physical Parameter Table
Parameter Symbol Value Units Sigma Reference Notes
absolute magnitude H 9.5   n/a MPO502156 IRAS observations used: 12
diameter diameter 35.465 km 0.054 urn:nasa:pds:neowise_diameters_albedos::2.0[mainbelt] (http://adsabs.harvard.edu/abs/2014ApJ...791..121M)  
rotation period rot_per 7.74 h n/a LCDB (Rev. 2019-August); Warner et al., 2009 Published Reference List:
[Barucci, M.A.; Di Martino, M. (1984) Astron. Astrophys. Suppl. Ser. 57, 103-106.]
[Zeigler, K.W. (1987) Minor Planet Bull. 14, 11-12.]
[Hainaut-Rouelle, M.-C.; Hainaut, O.R.; Detal, A. (1995) Astron. Astrophys. Suppl. Ser. 112, 125-142.]
[Kryszczynska, A.; Colas, F.; Berthier, J.; Michalowski, T.; Pych, W. (1996) Icarus 124, 134-140.]
[Michalowski, T.; Kaasalainen, M.; Marciniak, A.; Denchev, P.; et al. (2005) Astron. Astrophys. 443, 329-335.]
[Behrend, R. (2006) Observatoire de Geneve web site, http://obswww.unige.ch/~behrend/page_cou.html]
[Torppa, J.; Hentunen, V.-P.; Paakkonen, P.; Kehusmaa, P.; Muinonen, K. (2008) Icarus 198, 91-107.]
[Hanus, J.; Durech, J.; Broz, M.; Warner, B.D.; et al. (2011) Astron. Astrophys. 530, A134.]
geometric albedo albedo 0.321   0.054 urn:nasa:pds:neowise_diameters_albedos::2.0[mainbelt] (http://adsabs.harvard.edu/abs/2014ApJ...791..121M)  
B-V BV 0.891   0.039 EAR-A-5-DDR-UBV-MEAN-VALUES-V1.2 #obs=3; phase (min.=10.53, mean=14.69, max.=16.93) deg.
U-B UB 0.476   0.018 EAR-A-5-DDR-UBV-MEAN-VALUES-V1.2 #obs=3; phase (min.=10.53, mean=14.69, max.=16.93) deg.
Tholen spectral type spec_T S   n/a EAR-A-5-DDR-TAXONOMY-V4.0 used 7 color indices
SMASSII spectral type spec_B Sl   n/a EAR-A-5-DDR-TAXONOMY-V4.0 based on a high-resolution spectrum by Xu et al. (1995) or Bus and Binzel (2002)

376 Geometria (A893 SC)          Discovered 1893-Sep-18 by Charlois, A. at Nice
Reference: DISCOVERY.DBLast Updated: 2003-08-29

Alternate Designations
 A893 SC = 1950 BQ1 = 1954 BJ 
Ephemeris | Orbit Diagram | Orbital Elements | Mission Design | Physical Parameters | Discovery Circumstances ]
ABOUT SSD CREDITS/AWARDS PRIVACY/COPYRIGHT GLOSSARY LINKS
FirstGov 2020-Oct-22 13:31 UT
(server date/time)  
NASA Home Page
Site Manager:   Ryan S. Park
Webmaster  Alan B. Chamberlin